NORTHERN NASSAU  -  Areal Flood Advisory Areal Flood Advisory     Flash Flood Watch Flash Flood Watch     Rip Current Statement Rip Current Statement        NORTHERN QUEENS  -  Areal Flood Advisory Areal Flood Advisory     Flash Flood Watch Flash Flood Watch     Rip Current Statement Rip Current Statement        SOUTHERN NASSAU  -  Areal Flood Advisory Areal Flood Advisory     Flash Flood Watch Flash Flood Watch     Rip Current Statement Rip Current Statement        SOUTHERN QUEENS  -  Areal Flood Advisory Areal Flood Advisory     Flash Flood Watch Flash Flood Watch     Rip Current Statement Rip Current Statement        NORTHEAST SUFFOLK  -  Rip Current Statement Rip Current Statement        NORTHWEST SUFFOLK  -  Rip Current Statement Rip Current Statement        SOUTHEAST SUFFOLK  -  Rip Current Statement Rip Current Statement        SOUTHWEST SUFFOLK  -  Rip Current Statement Rip Current Statement      

Active alerts

Northern Queens
  Details for Northern Queens Areal Flood Advisory  +2 additional alerts
Southern Queens
  Details for Southern Queens Areal Flood Advisory  +2 additional alerts
Northern Nassau
  Details for Northern Nassau Areal Flood Advisory  +2 additional alerts
Southern Nassau
  Details for Southern Nassau Areal Flood Advisory  +2 additional alerts
Northwest Suffolk
  Details for Northwest Suffolk Rip Current Statement
Southwest Suffolk
  Details for Southwest Suffolk Rip Current Statement
Northeast Suffolk
  Details for Northeast Suffolk Rip Current Statement
Southeast Suffolk
  Details for Southeast Suffolk Rip Current Statement


WXM80 ListenWXM80 Stop

You find our weather info also at:

UK Metoffice

WeatherCloud

Weather Underground

Northeastern Weather Network

AWEKAS

Citizen Weather Observer Program (CWOP)

HAMweather, WeatherForYou, PWS Weather


Weather Underground History page Text

Daily Summary for March 13, 2017 Units:  English    Metric   Both
« Previous Day
Next Day »
Daily Weekly Monthly Yearly Custom
  High: Low: Average:
Temperature: 34.8 °F 19.9 °F 27.1 °F
Dew Point: 23.0 °F 6.6 °F 13.2 °F
Humidity: 74 % 41 % 56 %
Wind Speed: 7.8 mph 0.0 mph 2.9 mph
Wind Gust: 19.6 mph - -
Wind:- - SW
Pressure: 30.50 in 30.26 in -
Precipitation: 0.00 in    
Historical Graphs
 
 
Tabular Data for March 13, 2017
Time Temperature Dew Point Pressure Wind Wind Speed Wind Gust Humidity Rainfall Rate (Hourly)
00:00 23.3 °F 7.4 °F 30.39 in NNW 5.3 mph 13.8 mph 50 % 0.00 in
00:05 23.2 °F 7.7 °F 30.39 in NW 6.8 mph 11.5 mph 51 % 0.00 in
00:10 23.1 °F 7.6 °F 30.39 in NW 5.4 mph 19.6 mph 51 % 0.00 in
00:15 23.1 °F 7.6 °F 30.39 in NW 7.1 mph 11.5 mph 51 % 0.00 in
00:20 23.0 °F 7.1 °F 30.39 in WNW 7.5 mph 11.5 mph 50 % 0.00 in
00:25 22.9 °F 6.6 °F 30.38 in NW 6.5 mph 12.7 mph 49 % 0.00 in
00:30 22.8 °F 7.4 °F 30.39 in West 5.6 mph 12.7 mph 51 % 0.00 in
00:35 22.7 °F 6.8 °F 30.39 in NNW 5.2 mph 9.2 mph 50 % 0.00 in
00:40 22.6 °F 7.2 °F 30.39 in WNW 5.3 mph 9.2 mph 51 % 0.00 in
00:45 22.5 °F 7.1 °F 30.39 in NW 3.3 mph 5.8 mph 51 % 0.00 in
00:50 22.5 °F 7.1 °F 30.39 in WNW 6.4 mph 11.5 mph 51 % 0.00 in
00:55 22.5 °F 7.5 °F 30.39 in NW 6.1 mph 11.5 mph 52 % 0.00 in
01:00 22.5 °F 7.5 °F 30.39 in WNW 7.0 mph 11.5 mph 52 % 0.00 in
01:05 22.5 °F 7.5 °F 30.39 in North 7.0 mph 11.5 mph 52 % 0.00 in
01:10 22.4 °F 7.4 °F 30.40 in WNW 3.8 mph 8.1 mph 52 % 0.00 in
01:15 22.4 °F 7.8 °F 30.40 in NW 5.9 mph 11.5 mph 53 % 0.00 in
01:20 22.3 °F 7.3 °F 30.40 in NW 1.7 mph 5.8 mph 52 % 0.00 in
01:25 22.2 °F 7.2 °F 30.41 in NNW 5.5 mph 9.2 mph 52 % 0.00 in
01:30 22.2 °F 7.2 °F 30.41 in NNW 6.3 mph 11.5 mph 52 % 0.00 in
01:35 22.2 °F 6.8 °F 30.41 in NNW 4.2 mph 9.2 mph 51 % 0.00 in
01:40 22.2 °F 7.6 °F 30.41 in NW 2.5 mph 6.9 mph 53 % 0.00 in
01:45 22.2 °F 8.1 °F 30.41 in NW 5.5 mph 9.0 mph 54 % 0.00 in
01:50 22.2 °F 7.6 °F 30.41 in NNW 4.2 mph 6.9 mph 53 % 0.00 in
01:55 22.1 °F 7.6 °F 30.41 in North 4.8 mph 11.5 mph 53 % 0.00 in
02:00 22.1 °F 7.6 °F 30.41 in WNW 4.6 mph 11.5 mph 53 % 0.00 in
02:05 22.1 °F 7.6 °F 30.41 in NW 1.9 mph 3.5 mph 53 % 0.00 in
02:10 22.0 °F 7.5 °F 30.41 in WNW 1.4 mph 9.2 mph 53 % 0.00 in
02:15 22.0 °F 7.5 °F 30.41 in WNW 2.9 mph 5.0 mph 53 % 0.00 in
02:20 22.0 °F 7.5 °F 30.42 in NW 7.8 mph 11.5 mph 53 % 0.00 in
02:25 21.9 °F 7.4 °F 30.41 in North 2.4 mph 5.8 mph 53 % 0.00 in
02:31 21.9 °F 7.4 °F 30.42 in North 3.9 mph 8.1 mph 53 % 0.00 in
02:36 22.0 °F 7.5 °F 30.41 in NW 6.1 mph 9.2 mph 53 % 0.00 in
02:41 22.0 °F 7.9 °F 30.41 in NNW 2.8 mph 8.1 mph 54 % 0.00 in
02:46 21.9 °F 7.8 °F 30.41 in NNW 1.6 mph 5.8 mph 54 % 0.00 in
02:51 21.8 °F 7.3 °F 30.41 in NW 2.3 mph 8.1 mph 53 % 0.00 in
02:56 21.8 °F 7.7 °F 30.41 in WNW 2.4 mph 6.0 mph 54 % 0.00 in
03:01 21.8 °F 7.3 °F 30.41 in North 4.4 mph 6.9 mph 53 % 0.00 in
03:06 21.8 °F 7.3 °F 30.41 in NW 5.0 mph 5.8 mph 53 % 0.00 in
03:11 21.7 °F 7.2 °F 30.41 in NNW 3.1 mph 5.0 mph 53 % 0.00 in
03:16 21.7 °F 7.2 °F 30.41 in WNW 4.1 mph 6.9 mph 53 % 0.00 in
03:21 21.7 °F 8.0 °F 30.41 in NNW 3.9 mph 5.8 mph 55 % 0.00 in
03:26 21.7 °F 8.0 °F 30.41 in North 2.4 mph 5.8 mph 55 % 0.00 in
03:31 21.6 °F 7.9 °F 30.41 in North 4.5 mph 8.1 mph 55 % 0.00 in
03:36 21.6 °F 7.5 °F 30.41 in North 5.1 mph 8.1 mph 54 % 0.00 in
03:41 21.5 °F 7.4 °F 30.41 in NE 3.8 mph 6.0 mph 54 % 0.00 in
03:46 21.5 °F 7.4 °F 30.40 in NNW 5.0 mph 8.1 mph 54 % 0.00 in
03:51 21.5 °F 7.4 °F 30.40 in North 2.0 mph 4.6 mph 54 % 0.00 in
03:56 21.5 °F 7.4 °F 30.40 in NNW 3.2 mph 5.0 mph 54 % 0.00 in
04:01 21.4 °F 7.7 °F 30.40 in North 3.3 mph 6.9 mph 55 % 0.00 in
04:06 21.3 °F 8.0 °F 30.40 in North 1.3 mph 3.5 mph 56 % 0.00 in
04:11 21.3 °F 8.0 °F 30.41 in North 1.3 mph 5.0 mph 56 % 0.00 in
04:16 21.2 °F 7.5 °F 30.41 in NNW 4.0 mph 5.8 mph 55 % 0.00 in
04:21 21.2 °F 7.5 °F 30.41 in NNW 1.2 mph 3.5 mph 55 % 0.00 in
04:26 21.2 °F 7.5 °F 30.41 in North 3.1 mph 5.8 mph 55 % 0.00 in
04:31 21.1 °F 7.8 °F 30.41 in NNW 4.3 mph 9.0 mph 56 % 0.00 in
04:36 21.1 °F 7.8 °F 30.42 in North 5.5 mph 8.1 mph 56 % 0.00 in
04:41 21.0 °F 7.7 °F 30.42 in North 1.5 mph 3.5 mph 56 % 0.00 in
04:46 21.0 °F 8.1 °F 30.42 in NNE 3.6 mph 6.0 mph 57 % 0.00 in
04:51 20.9 °F 8.0 °F 30.42 in NW 3.6 mph 6.0 mph 57 % 0.00 in
04:56 20.8 °F 7.9 °F 30.42 in North 2.9 mph 5.0 mph 57 % 0.00 in
05:01 20.8 °F 7.9 °F 30.42 in NNE 5.3 mph 9.0 mph 57 % 0.00 in
05:06 20.7 °F 7.9 °F 30.42 in NNW 3.3 mph 4.6 mph 57 % 0.00 in
05:11 20.7 °F 8.2 °F 30.42 in North 4.9 mph 6.9 mph 58 % 0.00 in
05:16 20.7 °F 8.2 °F 30.43 in NNE 3.8 mph 5.8 mph 58 % 0.00 in
05:21 20.6 °F 8.5 °F 30.43 in North 2.7 mph 3.5 mph 59 % 0.00 in
05:26 20.6 °F 8.5 °F 30.43 in NW 2.2 mph 5.8 mph 59 % 0.00 in
05:31 20.6 °F 8.9 °F 30.43 in NW 3.6 mph 6.9 mph 60 % 0.00 in
05:36 20.5 °F 8.4 °F 30.43 in WNW 3.1 mph 7.0 mph 59 % 0.00 in
05:41 20.4 °F 8.3 °F 30.43 in North 3.8 mph 10.0 mph 59 % 0.00 in
05:46 20.3 °F 8.2 °F 30.43 in North 5.7 mph 6.9 mph 59 % 0.00 in
05:51 20.3 °F 8.6 °F 30.43 in North 4.0 mph 6.0 mph 60 % 0.00 in
05:56 20.3 °F 8.6 °F 30.43 in NNW 2.8 mph 4.0 mph 60 % 0.00 in
06:01 20.2 °F 8.9 °F 30.43 in NNW 3.3 mph 6.9 mph 61 % 0.00 in
06:06 20.2 °F 8.9 °F 30.43 in NNW 2.5 mph 6.9 mph 61 % 0.00 in
06:12 20.2 °F 8.9 °F 30.44 in NW 3.3 mph 4.6 mph 61 % 0.00 in
06:17 20.2 °F 9.2 °F 30.44 in NW 0.5 mph 4.6 mph 62 % 0.00 in
06:22 20.1 °F 9.2 °F 30.44 in NE 3.6 mph 5.8 mph 62 % 0.00 in
06:27 20.1 °F 9.2 °F 30.44 in North 3.6 mph 5.0 mph 62 % 0.00 in
06:32 20.0 °F 9.4 °F 30.45 in North 3.6 mph 6.0 mph 63 % 0.00 in
06:37 20.0 °F 9.4 °F 30.46 in NW 1.9 mph 5.8 mph 63 % 0.00 in
06:42 20.1 °F 9.5 °F 30.46 in North 0.4 mph 6.9 mph 63 % 0.00 in
06:47 20.1 °F 9.5 °F 30.45 in North 2.4 mph 4.0 mph 63 % 0.00 in
06:52 20.1 °F 9.9 °F 30.46 in NW 2.4 mph 5.8 mph 64 % 0.00 in
06:57 20.0 °F 10.1 °F 30.46 in NNW 2.6 mph 5.8 mph 65 % 0.00 in
07:02 20.0 °F 10.1 °F 30.47 in NNW 2.2 mph 3.5 mph 65 % 0.00 in
07:07 20.0 °F 10.1 °F 30.46 in NNW 2.8 mph 5.8 mph 65 % 0.00 in
07:12 20.0 °F 10.1 °F 30.47 in North 2.3 mph 3.5 mph 65 % 0.00 in
07:17 19.9 °F 10.0 °F 30.47 in NNW 2.3 mph 3.5 mph 65 % 0.00 in
07:22 19.9 °F 10.0 °F 30.47 in North 3.0 mph 5.0 mph 65 % 0.00 in
07:27 20.0 °F 10.1 °F 30.46 in North 0.9 mph 2.3 mph 65 % 0.00 in
07:32 20.0 °F 10.1 °F 30.46 in NNE 1.8 mph 3.5 mph 65 % 0.00 in
07:37 20.1 °F 9.9 °F 30.46 in North 2.9 mph 3.5 mph 64 % 0.00 in
07:42 20.2 °F 10.0 °F 30.46 in North 2.6 mph 3.5 mph 64 % 0.00 in
07:47 20.5 °F 10.2 °F 30.46 in North 0.7 mph 2.3 mph 64 % 0.00 in
07:53 20.7 °F 10.4 °F 30.46 in NNW 4.3 mph 4.6 mph 64 % 0.00 in
07:58 21.1 °F 10.5 °F 30.46 in North 1.5 mph 3.5 mph 63 % 0.00 in
08:03 21.5 °F 10.5 °F 30.47 in North 3.6 mph 5.8 mph 62 % 0.00 in
08:08 21.7 °F 10.3 °F 30.47 in North 1.8 mph 3.0 mph 61 % 0.00 in
08:13 22.1 °F 10.3 °F 30.48 in NNE 4.6 mph 7.0 mph 60 % 0.00 in
08:18 22.3 °F 10.5 °F 30.48 in NW 2.7 mph 5.8 mph 60 % 0.00 in
08:23 22.7 °F 11.2 °F 30.48 in North 1.0 mph 7.0 mph 61 % 0.00 in
08:28 23.0 °F 10.8 °F 30.49 in NNW 1.0 mph 5.0 mph 59 % 0.00 in
08:33 23.3 °F 10.7 °F 30.49 in North 2.9 mph 4.0 mph 58 % 0.00 in
08:38 23.5 °F 10.5 °F 30.49 in North 2.8 mph 5.8 mph 57 % 0.00 in
08:43 23.8 °F 11.2 °F 30.49 in NNE 3.2 mph 3.5 mph 58 % 0.00 in
08:48 24.2 °F 11.9 °F 30.49 in NNW 0.9 mph 4.6 mph 59 % 0.00 in
08:53 24.5 °F 11.4 °F 30.49 in NNW 2.0 mph 6.0 mph 57 % 0.00 in
08:58 24.8 °F 12.1 °F 30.48 in NNW 1.8 mph 4.6 mph 58 % 0.00 in
09:03 25.0 °F 11.9 °F 30.48 in North 3.1 mph 5.8 mph 57 % 0.00 in
09:08 25.1 °F 11.2 °F 30.48 in NNW 5.1 mph 9.2 mph 55 % 0.00 in
09:13 25.2 °F 11.7 °F 30.48 in NNW 0.7 mph 3.5 mph 56 % 0.00 in
09:18 25.3 °F 11.4 °F 30.49 in West 3.1 mph 5.8 mph 55 % 0.00 in
09:23 25.3 °F 11.0 °F 30.49 in NW 2.9 mph 4.6 mph 54 % 0.00 in
09:28 25.5 °F 11.1 °F 30.49 in NW 3.0 mph 4.6 mph 54 % 0.00 in
09:33 25.6 °F 11.2 °F 30.49 in WNW 3.7 mph 6.9 mph 54 % 0.00 in
09:38 25.6 °F 11.2 °F 30.49 in NNW 2.8 mph 4.6 mph 54 % 0.00 in
09:44 25.8 °F 11.4 °F 30.49 in NW 4.3 mph 6.9 mph 54 % 0.00 in
09:49 25.8 °F 11.4 °F 30.49 in NNW 1.9 mph 4.6 mph 54 % 0.00 in
09:54 26.0 °F 11.6 °F 30.49 in NW 2.6 mph 3.5 mph 54 % 0.00 in
09:59 26.0 °F 11.2 °F 30.49 in NW 3.4 mph 4.6 mph 53 % 0.00 in
10:04 25.8 °F 11.0 °F 30.49 in NNW 1.8 mph 3.5 mph 53 % 0.00 in
10:09 25.7 °F 11.3 °F 30.49 in NNW 3.9 mph 4.0 mph 54 % 0.00 in
10:14 25.8 °F 12.2 °F 30.50 in WNW 1.2 mph 5.8 mph 56 % 0.00 in
10:19 26.1 °F 12.5 °F 30.50 in WNW 2.1 mph 3.5 mph 56 % 0.00 in
10:24 26.3 °F 11.9 °F 30.50 in West 3.5 mph 5.8 mph 54 % 0.00 in
10:29 26.7 °F 13.1 °F 30.50 in NNW 1.5 mph 4.6 mph 56 % 0.00 in
10:34 27.3 °F 12.8 °F 30.50 in WNW 3.2 mph 6.9 mph 54 % 0.00 in
10:39 27.6 °F 12.7 °F 30.49 in WNW 2.2 mph 9.2 mph 53 % 0.00 in
10:44 27.9 °F 13.4 °F 30.49 in NNW 2.3 mph 4.0 mph 54 % 0.00 in
10:49 28.1 °F 12.7 °F 30.49 in NNW 3.0 mph 4.6 mph 52 % 0.00 in
10:54 28.2 °F 13.2 °F 30.48 in NW 1.1 mph 3.5 mph 53 % 0.00 in
10:59 28.7 °F 13.7 °F 30.48 in North 4.7 mph 6.9 mph 53 % 0.00 in
11:04 28.8 °F 13.4 °F 30.48 in NNW 2.9 mph 5.8 mph 52 % 0.00 in
11:09 28.7 °F 12.8 °F 30.48 in NNW 2.9 mph 5.8 mph 51 % 0.00 in
11:14 28.8 °F 13.4 °F 30.49 in NNW 2.6 mph 6.9 mph 52 % 0.00 in
11:19 29.0 °F 13.1 °F 30.49 in NW 3.5 mph 6.9 mph 51 % 0.00 in
11:24 29.3 °F 14.3 °F 30.49 in NW 2.4 mph 6.0 mph 53 % 0.00 in
11:29 29.9 °F 14.4 °F 30.48 in NW 3.7 mph 5.8 mph 52 % 0.00 in
11:34 30.2 °F 13.8 °F 30.47 in WSW 2.5 mph 5.8 mph 50 % 0.00 in
11:39 30.9 °F 14.9 °F 30.47 in WNW 3.9 mph 7.0 mph 51 % 0.00 in
11:44 31.1 °F 14.6 °F 30.48 in NNW 4.1 mph 8.1 mph 50 % 0.00 in
11:49 31.7 °F 15.2 °F 30.48 in WNW 2.8 mph 5.0 mph 50 % 0.00 in
11:54 32.0 °F 14.5 °F 30.48 in NNW 2.9 mph 4.6 mph 48 % 0.00 in
11:59 31.9 °F 14.9 °F 30.47 in NE 0.9 mph 3.5 mph 49 % 0.00 in
12:04 32.4 °F 15.3 °F 30.48 in NW 1.9 mph 3.5 mph 49 % 0.00 in
12:09 32.6 °F 14.1 °F 30.47 in WNW 1.4 mph 3.5 mph 46 % 0.00 in
12:14 32.7 °F 13.2 °F 30.47 in NNE 3.7 mph 5.0 mph 44 % 0.00 in
12:19 32.6 °F 14.6 °F 30.47 in NNW 2.5 mph 4.6 mph 47 % 0.00 in
12:24 32.5 °F 13.0 °F 30.47 in NW 3.8 mph 4.6 mph 44 % 0.00 in
12:29 32.0 °F 11.5 °F 30.46 in WNW 2.2 mph 5.0 mph 42 % 0.00 in
12:34 31.9 °F 11.9 °F 30.46 in NW 0.6 mph 3.0 mph 43 % 0.00 in
12:39 31.9 °F 12.9 °F 30.46 in NNW 2.2 mph 3.5 mph 45 % 0.00 in
12:44 32.2 °F 13.7 °F 30.45 in WSW 1.3 mph 3.5 mph 46 % 0.00 in
12:50 32.8 °F 13.2 °F 30.45 in SW 3.3 mph 8.1 mph 44 % 0.00 in
12:55 32.9 °F 13.3 °F 30.45 in WNW 1.5 mph 3.5 mph 44 % 0.00 in
13:00 32.9 °F 12.8 °F 30.44 in SW 1.2 mph 4.6 mph 43 % 0.00 in
13:05 32.9 °F 12.8 °F 30.45 in WSW 2.3 mph 4.0 mph 43 % 0.00 in
13:10 32.9 °F 12.3 °F 30.44 in WSW 3.1 mph 6.9 mph 42 % 0.00 in
13:15 33.0 °F 12.9 °F 30.44 in NW 1.3 mph 4.6 mph 43 % 0.00 in
13:20 32.8 °F 11.6 °F 30.44 in WNW 3.7 mph 5.8 mph 41 % 0.00 in
13:25 32.7 °F 13.2 °F 30.44 in WNW 4.5 mph 6.0 mph 44 % 0.00 in
13:30 32.5 °F 12.5 °F 30.44 in West 3.6 mph 5.8 mph 43 % 0.00 in
13:35 32.7 °F 11.6 °F 30.43 in West 5.4 mph 8.1 mph 41 % 0.00 in
13:40 32.8 °F 13.2 °F 30.43 in West 3.1 mph 7.0 mph 44 % 0.00 in
13:45 32.9 °F 12.3 °F 30.43 in WSW 4.7 mph 6.0 mph 42 % 0.00 in
13:50 32.7 °F 11.6 °F 30.43 in West 2.9 mph 5.8 mph 41 % 0.00 in
13:55 32.9 °F 13.3 °F 30.43 in WNW 4.4 mph 6.9 mph 44 % 0.00 in
14:00 33.0 °F 12.9 °F 30.43 in NW 2.0 mph 4.6 mph 43 % 0.00 in
14:05 33.2 °F 13.1 °F 30.43 in NNW 2.3 mph 4.6 mph 43 % 0.00 in
14:10 33.3 °F 14.7 °F 30.43 in WNW 2.2 mph 4.0 mph 46 % 0.00 in
14:15 33.4 °F 14.8 °F 30.42 in NNW 2.2 mph 3.5 mph 46 % 0.00 in
14:20 34.0 °F 16.3 °F 30.42 in NW 2.7 mph 5.0 mph 48 % 0.00 in
14:25 34.1 °F 14.9 °F 30.42 in North 3.6 mph 5.8 mph 45 % 0.00 in
14:30 34.3 °F 16.1 °F 30.42 in North 5.0 mph 10.4 mph 47 % 0.00 in
14:35 34.6 °F 15.9 °F 30.41 in NNE 5.6 mph 8.0 mph 46 % 0.00 in
14:40 34.3 °F 14.6 °F 30.41 in NNE 3.8 mph 6.9 mph 44 % 0.00 in
14:45 34.5 °F 15.8 °F 30.40 in North 3.5 mph 5.8 mph 46 % 0.00 in
14:50 34.8 °F 15.1 °F 30.40 in NNW 5.6 mph 8.1 mph 44 % 0.00 in
14:55 34.6 °F 14.4 °F 30.40 in NNW 4.6 mph 5.8 mph 43 % 0.00 in
15:00 34.7 °F 15.5 °F 30.40 in North 3.8 mph 6.0 mph 45 % 0.00 in
15:05 34.7 °F 15.0 °F 30.40 in NNW 4.3 mph 8.1 mph 44 % 0.00 in
15:10 34.7 °F 16.0 °F 30.40 in NNW 3.0 mph 4.6 mph 46 % 0.00 in
15:15 34.7 °F 15.5 °F 30.39 in North 3.7 mph 5.8 mph 45 % 0.00 in
15:20 34.8 °F 15.1 °F 30.39 in NNW 4.1 mph 6.0 mph 44 % 0.00 in
15:25 34.6 °F 15.4 °F 30.39 in NE 3.9 mph 4.6 mph 45 % 0.00 in
15:30 34.4 °F 14.2 °F 30.39 in ENE 3.6 mph 6.9 mph 43 % 0.00 in
15:35 34.1 °F 14.4 °F 30.39 in NE 2.3 mph 3.5 mph 44 % 0.00 in
15:40 33.8 °F 14.7 °F 30.39 in NE 1.6 mph 3.5 mph 45 % 0.00 in
15:45 33.6 °F 13.5 °F 30.38 in ENE 3.0 mph 4.6 mph 43 % 0.00 in
15:50 33.4 °F 13.3 °F 30.38 in NNE 2.5 mph 4.0 mph 43 % 0.00 in
15:55 33.4 °F 13.8 °F 30.38 in NE 3.3 mph 4.6 mph 44 % 0.00 in
16:00 33.3 °F 13.2 °F 30.38 in NE 2.4 mph 3.5 mph 43 % 0.00 in
16:05 33.3 °F 13.7 °F 30.38 in ENE 3.6 mph 5.0 mph 44 % 0.00 in
16:10 33.1 °F 13.5 °F 30.38 in NNE 3.1 mph 3.5 mph 44 % 0.00 in
16:15 33.0 °F 13.4 °F 30.38 in NE 2.3 mph 4.6 mph 44 % 0.00 in
16:20 33.0 °F 13.9 °F 30.37 in ENE 2.4 mph 4.6 mph 45 % 0.00 in
16:25 32.8 °F 14.3 °F 30.37 in ENE 4.7 mph 6.9 mph 46 % 0.00 in
16:30 32.5 °F 13.5 °F 30.36 in ENE 1.6 mph 3.5 mph 45 % 0.00 in
16:36 32.3 °F 14.3 °F 30.36 in NE 2.4 mph 3.5 mph 47 % 0.00 in
16:41 32.2 °F 13.7 °F 30.36 in NE 2.5 mph 5.8 mph 46 % 0.00 in
16:46 32.2 °F 14.2 °F 30.36 in NNE 2.8 mph 4.6 mph 47 % 0.00 in
16:51 32.2 °F 14.7 °F 30.35 in ENE 2.7 mph 6.9 mph 48 % 0.00 in
16:56 31.9 °F 13.4 °F 30.35 in ENE 2.9 mph 4.6 mph 46 % 0.00 in
17:01 31.8 °F 14.3 °F 30.35 in ENE 2.8 mph 4.6 mph 48 % 0.00 in
17:06 31.7 °F 14.7 °F 30.35 in ENE 1.8 mph 3.5 mph 49 % 0.00 in
17:11 31.6 °F 14.1 °F 30.35 in ENE 2.3 mph 4.0 mph 48 % 0.00 in
17:16 31.5 °F 14.5 °F 30.35 in ENE 3.6 mph 6.9 mph 49 % 0.00 in
17:21 31.4 °F 14.9 °F 30.35 in ENE 3.0 mph 5.0 mph 50 % 0.00 in
17:26 31.3 °F 15.2 °F 30.35 in ENE 0.3 mph 2.3 mph 51 % 0.00 in
17:31 31.4 °F 15.8 °F 30.35 in ENE 0.6 mph 2.3 mph 52 % 0.00 in
17:36 31.4 °F 16.2 °F 30.35 in NE 1.9 mph 3.5 mph 53 % 0.00 in
17:41 31.5 °F 16.3 °F 30.35 in SE 3.0 mph 5.8 mph 53 % 0.00 in
17:46 31.7 °F 16.1 °F 30.35 in SE 2.5 mph 5.8 mph 52 % 0.00 in
17:51 31.9 °F 16.2 °F 30.35 in SE 4.4 mph 9.0 mph 52 % 0.00 in
17:56 31.9 °F 17.1 °F 30.35 in SE 3.9 mph 9.2 mph 54 % 0.00 in
18:01 31.8 °F 16.6 °F 30.36 in SSE 4.4 mph 9.2 mph 53 % 0.00 in
18:07 31.6 °F 17.3 °F 30.35 in ESE 3.1 mph 5.0 mph 55 % 0.00 in
18:12 31.5 °F 17.2 °F 30.35 in SE 2.2 mph 5.8 mph 55 % 0.00 in
18:17 31.3 °F 16.6 °F 30.35 in SSE 1.5 mph 4.6 mph 54 % 0.00 in
18:22 31.1 °F 16.4 °F 30.35 in SE 4.0 mph 6.9 mph 54 % 0.00 in
18:27 31.0 °F 16.7 °F 30.36 in SSE 1.4 mph 3.5 mph 55 % 0.00 in
18:32 30.9 °F 16.6 °F 30.35 in SSE 5.5 mph 6.9 mph 55 % 0.00 in
18:37 30.7 °F 16.8 °F 30.36 in SE 3.3 mph 6.9 mph 56 % 0.00 in
18:42 30.5 °F 16.7 °F 30.35 in SSE 4.3 mph 8.1 mph 56 % 0.00 in
18:47 30.3 °F 16.9 °F 30.35 in SE 2.3 mph 7.0 mph 57 % 0.00 in
18:52 30.2 °F 16.8 °F 30.35 in SSE 2.9 mph 6.9 mph 57 % 0.00 in
18:57 30.0 °F 16.6 °F 30.35 in SSE 4.4 mph 8.1 mph 57 % 0.00 in
19:02 29.8 °F 17.2 °F 30.34 in SE 2.6 mph 5.8 mph 59 % 0.00 in
19:07 29.7 °F 17.5 °F 30.34 in SE 2.4 mph 4.6 mph 60 % 0.00 in
19:12 29.6 °F 17.4 °F 30.34 in SSE 5.1 mph 8.0 mph 60 % 0.00 in
19:17 29.4 °F 17.2 °F 30.34 in SSE 3.4 mph 5.0 mph 60 % 0.00 in
19:22 29.2 °F 17.4 °F 30.34 in SSE 3.4 mph 5.0 mph 61 % 0.00 in
19:27 29.1 °F 17.3 °F 30.34 in SE 4.4 mph 7.0 mph 61 % 0.00 in
19:32 29.1 °F 17.7 °F 30.35 in SE 3.7 mph 4.6 mph 62 % 0.00 in
19:37 29.0 °F 18.0 °F 30.35 in SSE 2.8 mph 5.8 mph 63 % 0.00 in
19:42 29.0 °F 18.0 °F 30.35 in SSE 2.0 mph 6.9 mph 63 % 0.00 in
19:47 28.9 °F 17.9 °F 30.35 in SSE 1.5 mph 3.5 mph 63 % 0.00 in
19:52 28.9 °F 18.2 °F 30.34 in SSE 4.5 mph 6.0 mph 64 % 0.00 in
19:58 28.8 °F 18.1 °F 30.35 in SSE 3.9 mph 6.9 mph 64 % 0.00 in
20:03 28.8 °F 18.5 °F 30.35 in SSE 5.0 mph 5.8 mph 65 % 0.00 in
20:08 28.7 °F 18.8 °F 30.34 in SSE 2.0 mph 6.0 mph 66 % 0.00 in
20:13 28.7 °F 18.8 °F 30.33 in SSE 2.0 mph 7.0 mph 66 % 0.00 in
20:18 28.7 °F 18.8 °F 30.33 in SSE 3.6 mph 4.6 mph 66 % 0.00 in
20:23 28.7 °F 19.1 °F 30.34 in SSE 2.0 mph 5.0 mph 67 % 0.00 in
20:28 28.7 °F 19.1 °F 30.34 in SSE 1.0 mph 5.0 mph 67 % 0.00 in
20:33 28.6 °F 19.0 °F 30.34 in SSE 2.0 mph 5.0 mph 67 % 0.00 in
20:38 28.6 °F 19.4 °F 30.34 in ESE 1.5 mph 3.5 mph 68 % 0.00 in
20:43 28.7 °F 19.4 °F 30.34 in SE 1.0 mph 3.0 mph 68 % 0.00 in
20:48 28.7 °F 19.8 °F 30.34 in SSE 0.5 mph 3.0 mph 69 % 0.00 in
20:53 28.7 °F 19.8 °F 30.33 in Calm   2.0 mph 69 % 0.00 in
20:58 28.7 °F 19.8 °F 30.34 in SSE 0.1 mph 1.2 mph 69 % 0.00 in
21:03 28.7 °F 19.8 °F 30.34 in Calm   1.2 mph 69 % 0.00 in
21:08 28.8 °F 19.9 °F 30.34 in SSE 0.2 mph 2.3 mph 69 % 0.00 in
21:13 28.8 °F 19.9 °F 30.33 in Calm   2.0 mph 69 % 0.00 in
21:18 28.8 °F 19.9 °F 30.34 in Calm     69 % 0.00 in
21:23 28.9 °F 20.0 °F 30.34 in SSE 1.1 mph 3.0 mph 69 % 0.00 in
21:28 28.9 °F 20.0 °F 30.34 in SSE 1.1 mph 2.3 mph 69 % 0.00 in
21:33 28.9 °F 20.3 °F 30.34 in SSE 1.7 mph 3.5 mph 70 % 0.00 in
21:38 29.0 °F 20.4 °F 30.34 in South 0.1 mph 1.2 mph 70 % 0.00 in
21:43 29.0 °F 20.4 °F 30.33 in South 0.2 mph 1.2 mph 70 % 0.00 in
21:48 29.1 °F 20.5 °F 30.33 in Calm   1.2 mph 70 % 0.00 in
21:53 29.2 °F 20.6 °F 30.32 in ESE 1.0 mph 3.5 mph 70 % 0.00 in
21:59 29.2 °F 20.6 °F 30.32 in ESE 1.6 mph 2.3 mph 70 % 0.00 in
22:04 29.2 °F 21.0 °F 30.32 in ESE 0.4 mph 2.0 mph 71 % 0.00 in
22:09 29.3 °F 21.1 °F 30.31 in ESE 1.1 mph 2.3 mph 71 % 0.00 in
22:14 29.3 °F 21.1 °F 30.31 in ESE 1.5 mph 2.3 mph 71 % 0.00 in
22:19 29.3 °F 21.1 °F 30.31 in ESE 0.8 mph 2.3 mph 71 % 0.00 in
22:24 29.3 °F 20.7 °F 30.31 in ESE 0.1 mph 1.2 mph 70 % 0.00 in
22:29 29.4 °F 21.2 °F 30.31 in Calm   1.2 mph 71 % 0.00 in
22:34 29.4 °F 21.2 °F 30.31 in Calm   1.2 mph 71 % 0.00 in
22:39 29.4 °F 21.2 °F 30.32 in ESE 0.1 mph 2.3 mph 71 % 0.00 in
22:44 29.5 °F 21.3 °F 30.32 in Calm   1.2 mph 71 % 0.00 in
22:49 29.5 °F 21.3 °F 30.31 in ESE 0.1 mph 1.2 mph 71 % 0.00 in
22:54 29.5 °F 21.3 °F 30.31 in ESE 1.0 mph 2.3 mph 71 % 0.00 in
22:59 29.6 °F 21.3 °F 30.30 in ESE 1.8 mph 3.5 mph 71 % 0.00 in
23:04 29.6 °F 21.7 °F 30.29 in East 3.5 mph 4.6 mph 72 % 0.00 in
23:09 29.7 °F 22.1 °F 30.29 in East 2.5 mph 5.0 mph 73 % 0.00 in
23:14 29.8 °F 22.2 °F 30.29 in East 1.5 mph 2.3 mph 73 % 0.00 in
23:19 29.8 °F 22.2 °F 30.29 in East 1.4 mph 2.3 mph 73 % 0.00 in
23:24 29.9 °F 22.3 °F 30.27 in East 3.4 mph 5.8 mph 73 % 0.00 in
23:29 30.0 °F 22.4 °F 30.27 in East 3.6 mph 5.0 mph 73 % 0.00 in
23:34 30.0 °F 22.4 °F 30.27 in East 3.5 mph 5.8 mph 73 % 0.00 in
23:39 30.1 °F 22.5 °F 30.27 in East 2.9 mph 4.6 mph 73 % 0.00 in
23:44 30.2 °F 22.9 °F 30.26 in East 3.8 mph 5.0 mph 74 % 0.00 in
23:49 30.3 °F 22.7 °F 30.27 in East 3.1 mph 5.0 mph 73 % 0.00 in
23:55 30.3 °F 23.0 °F 30.26 in East 4.2 mph 6.0 mph 74 % 0.00 in
Crab Meadow Weather
Compliments of Weather Underground - 3 mb

Script developed by  Jim McMurry - jmcmurry@mwt.net Adapted for the template by  Wim van der Kuil - Leuven-Template.eu

Extremes: The longest period without measurable rainfall in the United States was 767 days at Bagdad, California.